{"data":{"norad_id":62130,"intl_designator":"2024-222S","name":"STARLINK-32463","alt_names":[],"object_type":"PAYLOAD","status":"ACTIVE","operator":null,"country":"US","launch_date":"2024-11-27","launch_site_code":"AFETR","launch_vehicle":null,"mission":null,"orbit_class":"UNKNOWN","rcs_meters":null,"size_class":null,"mass_kg":null,"dimensions":null,"purposes":["comms"],"wikipedia_slug":null,"has_3d_model":false,"image_url":null,"decayed_at":null,"tle_current":{"epoch":"2026-05-25T04:55:09.960096Z","epoch_age_seconds":51338,"freshness":"FRESH","line1":"1 62130U 24222S   26145.20497639  .00011383  00000+0  42242-3 0  9994","line2":"2 62130  43.0001  63.8391 0000679 270.8132  89.2642 15.27588505 84455","mean_motion":15.27588505,"eccentricity":6.79e-5,"inclination_deg":43.0001,"raan_deg":63.8391,"arg_perigee_deg":270.8132,"mean_anomaly_deg":89.2642,"bstar":0.00042242,"rev_number":8445,"period_min":94.26622387421,"perigee_km":482.55775632144,"apogee_km":483.48950193487,"semimajor_km":6861.1606291282,"source":"CELESTRAK","updated_at":"2026-05-25T13:38:19.566079Z"}}}